(327164) = 2005 JX2 = 2006 UM250

Discovered at Kitt Peak on 2005-05-03 by Spacewatch.

Orbit

Orbit type: Main Belt

Note: WebGL enabled browser required.

epoch2023-02-25.0
epoch JD2460000.5
perihelion date2020-03-31.07853
perihelion JD2458939.57853
argument of perihelion (°)60.14040
ascending node (°)207.63345
inclination (°)1.24289
eccentricity0.1484290
perihelion distance (AU)2.0174583
Tisserand w.r.t. Jupiter3.5
ΔV w.r.t. Earth (km/sec)8.8
semimajor axis (AU)2.3691018
mean anomaly (°)286.75533
mean daily motion (°/day)0.27028890
aphelion distance (AU)2.721
period (years)3.65
P-vector [x]-0.03893846
P-vector [y]-0.92410650
P-vector [z]-0.38014599
Q-vector [x]0.99919096
Q-vector [y]-0.03983903
Q-vector [z]-0.00550169
absolute magnitude17.93
phase slope0.15
uncertainty0
referenceMPO 745323
observations used193
oppositions13
arc length (days)7553
first opposition used2002
last opposition used2023
residual rms (arc-secs)0.76
perturbers coarse indicatorM-v
perturbers precise indicator003Ek
first observation date used2002-09-05.0
last observation date used2023-05-11.0
computer nameMPCLINUX
JD of orbit computation2456581.697969
perihelion JD uncertainty (days)1.5734E-04
argument of perihelion uncertainty (°)1.8982E-04
ascending node uncertainty (°)1.8582E-04
inclination uncertainty (°)7.9793E-06
eccentricity uncertainty 5.7878E-08
perihelion distance uncertainty (AU)1.5199E-07
Minimum Orbit Intersection Distances (in AU)
for orbit epoch: 2460000.5, reference: E2023-JB1
Mercury1.55432
Venus1.29112
Earth1.00139
Mars0.52058
Jupiter2.34999
Saturn6.34065
Uranus15.957
Neptune27.253

Observations

198 total observations over interval: 2002 09 05.299540 – 2023 05 11.328120
These data are available for download (format description).

Date (UT) J2000 RA J2000 Dec Magn Location Ref
2002 09 05.299540 23 39 17.981 -00 44 24.94 20.81 V 645 – Apache Point-Sloan Digital Sky Survey MPS 286903
2002 09 05.303012 23 39 17.791 -00 44 26.19 21.77   645 – Apache Point-Sloan Digital Sky Survey MPS 286903
2005 04 17.40836 15 07 56.95 -17 07 58.9 20.6 V 691 – Steward Observatory, Kitt Peak-Spacewatch MPS 188697
2005 04 17.42705 15 07 56.17 -17 07 54.8 20.5 V 691 – Steward Observatory, Kitt Peak-Spacewatch MPS 188697
2005 04 17.44549 15 07 55.37 -17 07 50.8 20.4 V 691 – Steward Observatory, Kitt Peak-Spacewatch MPS 188697
2005 05 03.26831 14 54 58.07 -15 58 42.9 20.2 V 691 – Steward Observatory, Kitt Peak-Spacewatch MPS 133397
2005 05 03.28561 14 54 57.07 -15 58 37.8 20.1 V 691 – Steward Observatory, Kitt Peak-Spacewatch MPS 133397
2005 05 03.30305 14 54 56.05 -15 58 32.9 20.1 V 691 – Steward Observatory, Kitt Peak-Spacewatch MPS 133397
2005 05 04.30575 14 54 00.08 -15 53 35.6 19.4 R G96 – Mt. Lemmon Survey MPS 133397
2005 05 04.31370 14 53 59.64 -15 53 33.2 19.3 R G96 – Mt. Lemmon Survey MPS 133397
2005 05 04.32169 14 53 59.14 -15 53 30.8 19.2 R G96 – Mt. Lemmon Survey MPS 133397
2005 05 04.32970 14 53 58.66 -15 53 28.5 18.7 R G96 – Mt. Lemmon Survey MPS 133397
2006 10 27.30200 02 22 59.59 +13 54 07.8 21.2 V G96 – Mt. Lemmon Survey MPS 185802
2006 10 27.31414 02 22 58.76 +13 54 03.7 20.2 V G96 – Mt. Lemmon Survey MPS 185802
2006 10 27.32621 02 22 58.04 +13 53 59.3 20.1 V G96 – Mt. Lemmon Survey MPS 185802
2006 10 27.33837 02 22 57.32 +13 53 55.7 20.8 V G96 – Mt. Lemmon Survey MPS 185802
2006 10 29.22698 02 21 03.92 +13 43 31.5 20.5 V G96 – Mt. Lemmon Survey MPS 186575
2006 10 29.23126 02 21 03.69 +13 43 30.6   691 – Steward Observatory, Kitt Peak-Spacewatch MPS 185802
2006 10 29.23133 02 21 03.67 +13 43 30.0 20.6 V G96 – Mt. Lemmon Survey MPS 186575
2006 10 29.23698 02 21 03.31 +13 43 28.2 20.7 V G96 – Mt. Lemmon Survey MPS 186575
2006 10 29.24133 02 21 03.02 +13 43 26.6 20.7 V G96 – Mt. Lemmon Survey MPS 186575
2006 10 29.24865 02 21 02.60 +13 43 24.6   691 – Steward Observatory, Kitt Peak-Spacewatch MPS 185802
2006 10 29.26603 02 21 01.55 +13 43 18.7   691 – Steward Observatory, Kitt Peak-Spacewatch MPS 185802
2006 11 14.15231 02 06 01.15 +12 18 47.9   291 – LPL/Spacewatch II MPS 286903
2006 11 14.15625 02 06 00.99 +12 18 46.6   291 – LPL/Spacewatch II MPS 286903
2006 11 14.16008 02 06 00.78 +12 18 45.5   291 – LPL/Spacewatch II MPS 286903
2006 11 22.12905 01 59 56.65 +11 43 21.7 21.4   G96 – Mt. Lemmon Survey MPS 188697
2006 11 22.13821 01 59 56.29 +11 43 19.4 22.1   G96 – Mt. Lemmon Survey MPS 188697
2006 11 22.14743 01 59 55.89 +11 43 18.1 21.4   G96 – Mt. Lemmon Survey MPS 188697
2006 11 22.15664 01 59 55.53 +11 43 15.5 21.9   G96 – Mt. Lemmon Survey MPS 188697
2010 12 02.38391 04 47 38.36 +21 01 44.1 21.2 V G96 – Mt. Lemmon Survey MPS 358873
2010 12 02.39125 04 47 37.86 +21 01 42.9 20.9 V G96 – Mt. Lemmon Survey MPS 358873
2010 12 02.39865 04 47 37.39 +21 01 42.1 21.3 V G96 – Mt. Lemmon Survey MPS 358873
2010 12 02.40597 04 47 36.88 +21 01 41.0 20.7 V G96 – Mt. Lemmon Survey MPS 358873
2012 03 13.36398 11 50 28.24 -00 13 10.1 20.4 V G96 – Mt. Lemmon Survey MPS 416127
2012 03 13.37321 11 50 27.67 -00 13 06.4 20.2 V G96 – Mt. Lemmon Survey MPS 416127
2012 03 13.38249 11 50 27.20 -00 13 02.6 20.0 V G96 – Mt. Lemmon Survey MPS 416127
2012 03 13.39179 11 50 26.62 -00 12 59.1 20.4 V G96 – Mt. Lemmon Survey MPS 416127
2012 03 17.30169 11 46 48.10 +00 12 38.6 20.4 V G96 – Mt. Lemmon Survey MPS 417217
2012 03 17.30911 11 46 47.67 +00 12 41.5 19.8 V G96 – Mt. Lemmon Survey MPS 417217
2012 03 17.31664 11 46 47.24 +00 12 44.5 20.3 V G96 – Mt. Lemmon Survey MPS 417217
2012 03 17.32413 11 46 46.81 +00 12 47.5 19.9 V G96 – Mt. Lemmon Survey MPS 417217
2012 03 20.37272 11 43 54.552 +00 33 10.64 20.8 w F51 – Pan-STARRS 1, Haleakala MPS 447679
2012 03 20.40197 11 43 52.824 +00 33 22.31 20.7 w F51 – Pan-STARRS 1, Haleakala MPS 447679
2012 03 20.41658 11 43 51.952 +00 33 28.39 20.7 w F51 – Pan-STARRS 1, Haleakala MPS 447679
2012 04 18.17053 11 22 14.37 +03 14 49.5 20.2 V G96 – Mt. Lemmon Survey MPS 420818
2012 04 18.17461 11 22 14.30 +03 14 50.1 21.1 V G96 – Mt. Lemmon Survey MPS 420818
2012 04 18.17753 11 22 14.16 +03 14 51.1 20.9 V G96 – Mt. Lemmon Survey MPS 420818
2012 04 18.18187 11 22 14.08 +03 14 52.0 21.2 V G96 – Mt. Lemmon Survey MPS 420818
2012 04 18.18477 11 22 13.98 +03 14 52.5 20.9 V G96 – Mt. Lemmon Survey MPS 420818
2012 04 18.18883 11 22 13.87 +03 14 53.6 21.1 V G96 – Mt. Lemmon Survey MPS 420818
2012 04 18.19169 11 22 13.76 +03 14 53.8 21.6 V G96 – Mt. Lemmon Survey MPS 420818
2012 04 18.19579 11 22 13.65 +03 14 54.9 21.0 V G96 – Mt. Lemmon Survey MPS 420818
2013 09 02.40917 00 23 45.83 +03 47 51.6 21.0 V G96 – Mt. Lemmon Survey MPS 476090
2013 09 02.41676 00 23 45.48 +03 47 49.4 21.1 V G96 – Mt. Lemmon Survey MPS 476090
2013 09 02.42446 00 23 45.18 +03 47 46.7 20.2 V G96 – Mt. Lemmon Survey MPS 476090
2013 09 02.43207 00 23 44.81 +03 47 44.8 21.0 V G96 – Mt. Lemmon Survey MPS 476090
2013 09 24.26849 00 05 08.18 +01 36 23.5 20.1 V G96 – Mt. Lemmon Survey MPS 478667
2013 09 24.27374 00 05 07.91 +01 36 21.5 20.4 V G96 – Mt. Lemmon Survey MPS 478667
2013 09 24.27903 00 05 07.59 +01 36 19.3 20.1 V G96 – Mt. Lemmon Survey MPS 478667
2013 09 24.28434 00 05 07.30 +01 36 16.8 20.2 V G96 – Mt. Lemmon Survey MPS 478667
2014 12 20.18467 07 23 53.31 +20 11 39.9   G36 – Calar Alto-CASADO MPS 559939
2014 12 20.19836 07 23 52.55 +20 11 41.4   G36 – Calar Alto-CASADO MPS 559939
2014 12 20.21170 07 23 51.77 +20 11 43.0   G36 – Calar Alto-CASADO MPS 559939
2015 01 13.33610 06 58 25.686 +20 50 30.19 21.4 w F51 – Pan-STARRS 1, Haleakala MPS 562357
2015 01 13.34965 06 58 24.764 +20 50 31.71 21.5 w F51 – Pan-STARRS 1, Haleakala MPS 562357
2015 01 13.36321 06 58 23.852 +20 50 33.09 21.5 w F51 – Pan-STARRS 1, Haleakala MPS 562357
2015 01 13.37668 06 58 22.962 +20 50 34.26 21.4 w F51 – Pan-STARRS 1, Haleakala MPS 562357
2016 03 07.59444 15 50 22.896 -19 56 19.52 21.7 w F51 – Pan-STARRS 1, Haleakala MPS 692308
2016 03 07.60543 15 50 23.531 -19 56 21.36 21.8 w F51 – Pan-STARRS 1, Haleakala MPS 692308
2016 03 07.61641 15 50 24.175 -19 56 22.74 21.9 w F51 – Pan-STARRS 1, Haleakala MPS 692308
2016 03 07.62742 15 50 24.778 -19 56 24.35 21.7 w F51 – Pan-STARRS 1, Haleakala MPS 692308
2016 05 03.39055 15 59 10.96 -19 31 17.5 20.2 V G96 – Mt. Lemmon Survey MPS 708060
2016 05 03.39510 15 59 10.73 -19 31 16.6 20.0 V G96 – Mt. Lemmon Survey MPS 708060
2016 05 03.39970 15 59 10.51 -19 31 15.8 20.4 V G96 – Mt. Lemmon Survey MPS 708060
2016 05 03.40424 15 59 10.32 -19 31 15.0 20.3 V G96 – Mt. Lemmon Survey MPS 708060
2016 05 03.47975 15 59 07.094 -19 30 59.61 20.0 w F51 – Pan-STARRS 1, Haleakala MPS 708060
2016 05 03.49921 15 59 06.164 -19 30 55.80 20.0 w F51 – Pan-STARRS 1, Haleakala MPS 708060
2016 05 03.50894 15 59 05.688 -19 30 54.01 20.1 w F51 – Pan-STARRS 1, Haleakala MPS 708060
2016 05 13.32058 15 50 51.47 -18 56 32.1 20.6 r G45 – Space Surveillance Telescope, Atom Site MPS 711945
2016 05 13.32618 15 50 51.09 -18 56 30.4 20.0 r G45 – Space Surveillance Telescope, Atom Site MPS 711945
2016 05 13.33066 15 50 50.89 -18 56 30.0 20.7 r G45 – Space Surveillance Telescope, Atom Site MPS 711945
2016 05 13.33480 15 50 50.63 -18 56 28.8 20.6 r G45 – Space Surveillance Telescope, Atom Site MPS 711945
2016 06 07.29831 15 28 48.36 -17 25 10.3 19.9 V G96 – Mt. Lemmon Survey MPS 716427
2016 06 07.30525 15 28 48.01 -17 25 09.2 19.4 V G96 – Mt. Lemmon Survey MPS 716427
2016 06 07.31207 15 28 47.75 -17 25 08.1 19.4 V G96 – Mt. Lemmon Survey MPS 716427
2016 06 07.31909 15 28 47.50 -17 25 05.6 19.9 V G96 – Mt. Lemmon Survey MPS 716427
2016 07 08.31790 15 22 19.706 -16 57 16.42 20.6 w F51 – Pan-STARRS 1, Haleakala MPS 721130
2016 07 08.32900 15 22 19.885 -16 57 17.21 20.7 w F51 – Pan-STARRS 1, Haleakala MPS 721130
2016 07 08.34031 15 22 20.079 -16 57 18.03 20.8 w F51 – Pan-STARRS 1, Haleakala MPS 721130
2017 10 22.33123 03 00 44.74 +16 38 26.6 20.7 G G96 – Mt. Lemmon Survey MPS 831203
2017 10 22.33647 03 00 44.59 +16 38 26.6 20.8 G G96 – Mt. Lemmon Survey MPS 831203
2017 10 22.34164 03 00 44.21 +16 38 26.4 22.3 G G96 – Mt. Lemmon Survey MPS 831203
